The Dalles, WA

12:43 AM PDT on October 19, 2019 (GMT -0700)
Columbia Gorge Regional-The Dalles

Weather History for KDLS - July, 2019

Change the Weather History Date:

Friday, July 19, 2019

  Actual Average Record
Temperature  
Mean Temperature 68 °F -  
Max Temperature 81 °F 90 °F 108 °F (1956)
Min Temperature 55 °F 61 °F 50 °F (1962)
Cooling Degree Days 2    
Growing Degree Days 18 (Base 50)    
Moisture  
Dew Point 44 °F    
Average Humidity 45    
Maximum Humidity 67    
Minimum Humidity 24    
Precipitation  
Precipitation 0.00 in - - ()
Sea Level Pressure  
Sea Level Pressure 30.01 in    
Wind  
Wind Speed 11 mph (WNW)    
Max Wind Speed 17 mph    
Max Gust Speed 18 mph    
Visibility 10 miles    
Events      
Averages and records for this station are not official NWS values.
T = Trace of Precipitation, MM = Missing Value Source: NWS Daily Summary

Daily Weather History Graph

Daily Weather History Graph

Search for Another Location

Airport or City:

Astronomy

Jul. 19, 2019 Rise Set
Actual Time 5:33 AM PDT 8:47 PM PDT
Civil Twilight 4:57 AM PDT 9:23 PM PDT
Nautical Twilight 4:10 AM PDT 10:10 PM PDT
Astronomical Twilight 3:12 AM PDT 11:07 PM PDT
Moon 10:41 PM PDT 8:10 AM PDT
Length of Visible Light 16h 25m
Length of Day
15h 13m
Waning Gibbous, 92% of the Moon is Illuminated
Jul 19
Waning Gibbous
Jul 24
Last Quarter
Jul 31
New
Aug 7
First Quarter
Aug 15
Full

Hourly Weather History & Observations

Time (PDT) Temp. Dew Point Humidity Pressure Visibility Wind Dir Wind Speed Gust Speed Precip Events Conditions
12:53 AM 63.0 °F 46.0 °F 54% 29.99 in 10.0 mi West 17.3 mph - N/A   Clear
1:53 AM 61.0 °F 45.0 °F 56% 30.00 in 10.0 mi West 10.4 mph - N/A   Clear
2:53 AM 59.0 °F 46.0 °F 62% 30.02 in 10.0 mi WSW 6.9 mph - N/A   Clear
3:53 AM 57.9 °F 45.0 °F 62% 30.03 in 10.0 mi Calm Calm - N/A   Clear
4:53 AM 55.9 °F 44.1 °F 64% 30.05 in 10.0 mi NW 6.9 mph - N/A   Clear
5:53 AM 55.0 °F 44.1 °F 67% 30.05 in 10.0 mi WNW 8.1 mph - N/A   Clear
6:53 AM 57.9 °F 46.0 °F 65% 30.06 in 10.0 mi Calm Calm - N/A   Clear
7:53 AM 61.0 °F 48.0 °F 62% 30.07 in 10.0 mi WNW 6.9 mph - N/A   Clear
8:53 AM 64.0 °F 46.9 °F 54% 30.08 in 10.0 mi NNW 13.8 mph - N/A   Clear
9:53 AM 68.0 °F 46.0 °F 45% 30.07 in 10.0 mi NW 12.7 mph - N/A   Clear
10:53 AM 70.0 °F 45.0 °F 41% 30.05 in 10.0 mi NNW 15.0 mph - N/A   Clear
11:53 AM 73.0 °F 43.0 °F 34% 30.05 in 10.0 mi NW 12.7 mph - N/A   Clear
12:53 PM 73.9 °F 39.9 °F 29% 30.03 in 10.0 mi NW 13.8 mph 18.4 mph N/A   Clear
1:53 PM 77.0 °F 37.0 °F 24% 30.01 in 10.0 mi NW 6.9 mph - N/A   Clear
2:53 PM 78.1 °F 39.0 °F 25% 30.00 in 10.0 mi NNW 9.2 mph - N/A   Clear
3:53 PM 80.1 °F 44.1 °F 28% 29.99 in 10.0 mi NNW 12.7 mph - N/A   Clear
4:53 PM 80.1 °F 42.1 °F 26% 29.97 in 10.0 mi WNW 16.1 mph - N/A   Clear
5:53 PM 78.1 °F 46.0 °F 32% 29.96 in 10.0 mi NW 13.8 mph - N/A   Clear
6:53 PM 77.0 °F 45.0 °F 32% 29.96 in 10.0 mi NW 12.7 mph - N/A   Clear
7:53 PM 75.0 °F 44.1 °F 33% 29.96 in 10.0 mi WNW 16.1 mph - N/A   Clear
8:53 PM 70.0 °F 44.1 °F 39% 29.96 in 10.0 mi WNW 5.8 mph - N/A   Clear
9:53 PM 69.1 °F 44.1 °F 40% 29.98 in 10.0 mi West 10.4 mph - N/A   Clear
10:53 PM 66.0 °F 44.1 °F 45% 29.99 in 10.0 mi West 8.1 mph - N/A   Clear
11:53 PM 64.0 °F 45.0 °F 50% 29.99 in 10.0 mi West 8.1 mph - N/A   Clear